Showing default

YAOGAN-36 04A, 54746

Orbit data source: Space-Track

YAOGAN-36 04A, 54746 is a payload satellite owned by PLA GAD (CN) in LEO that was launched on Wed, 14 Dec 2022 UTC via a CHANG ZHENG 2D launch vehicle from the Xichang Space Center, China (XSC). Payload-class satellites include a variety of spacecraft equipped with specific instruments for various scientific and technological missions. These include communications satellites like Starlink; space stations such as the ISS; scientific satellites like the Hubble; Earth observation satellites from companies like Planet Labs, Umbra, and HawkEye 360; GPS; miniature CubeSats for education and research; and military/defense satellites.

Loading next visibility...
Identifier
54746, 2022-171A
Orbit
LEO
Country
Flag of CNCN / PRC
Related business
Manufacturer
DFH
Mission
Operational Defense Sigint
Bus & Motor
Unknown
Mass
~300 kg wet, ~300 kg dry
Launch date (UTC)
2022-12-14 (4 years ago)
Launch vehicle
CHANG ZHENG 2D
Launch site
Xichang Space Center, China (XSC)
Object type
Payload
Rocket body
Debris
Shape & HBR
Box + 2 Pan, 2.5 m
Radar Cross Section
11.063 m², Large (>1 m²)

Expand to show TLE details & history
Last TLE update: 23 hours ago

TLE from 23 hours ago
0 YAOGAN-36 04A
1 54746U 22171A   26172.51196725  .00003774  00000-0  16735-3 0  9999
2 54746  34.9889 194.3208 0007376 323.8009  36.2206 15.21049523195785
Epoch: 2026-06-21T12:17Z
TLE epoch observation values (Epoch: 2026-06-21T12:17:13.970Z)
Latitude
0.00003°
Longitude
100.30146°
Altitude
497.488 km
Speed
7.62 km/s
True Right ascension
12h 57m 17s
True Declination
0° 00' 00"
Sunlit
Object was in daylight at epoch
Visualization orbit readout
Latitude
Unknown
Longitude
Unknown
Altitude
Unknown
Speed
Unknown
Apparent Right ascension
Unknown
Apparent Declination
Unknown
Sunlit
N/A
Visualization observer readout
Local Sidereal Time
21:50:07
Azimuth
Unknown
Elevation
Unknown
Doppler factor
Unknown
Orbital elements
Apogee altitude
511 km
Perigee altitude
500.845 km
Semi-major axis
6,884.06 km
Eccentricity
0.00074
Inclination
34.9889°
RAAN
194.3208°
Arg. of periapsis
323.8009°
True anomaly
36.27058°
Mean anomaly
36.2206°
Eccentric anomaly
36.24559°
Mean motion
3.79994 °/min
Orbital period
94.74 mins
BSTAR
0.00016735
Loading maneuver chart data...
Computing Atmospheric mass density...
Loading historical data...
Loading historical data...
Loading historical data...
Loading historical data...
Loading historical data...
Loading historical data...
Loading historical data...
Other satellites on launch #171 in the year 2022 (2022-12-14 UTC)

Documentation

Showing up to 5 results
|